Wind_Speed
23 23 23 23 23 23 23 23 24 24 24 24 24 25 26 27 27 28 28 29 30 32 32 32 33 34 35 36 37 39 40 40 41 41 41 42 43 44
22 22 23 23 23 23 22 23 23 23 23 24 24 25 25 26 26 26 27 27 28 29 30 31 32 33 34 36 37 38 39 40 40 41 41 41 42 44
22 22 21 21 22 22 22 22 22 22 22 23 23 24 24 25 25 25 25 26 27 28 28 30 31 32 33 34 35 36 38 39 40 41 41 42 42 43
21 21 21 21 21 22 22 22 22 22 22 22 22 22 23 23 23 23 24 25 26 27 28 29 29 30 31 32 34 35 37 39 40 41 41 42 43 44
20 20 20 20 21 22 22 22 22 21 22 22 22 22 22 22 23 23 23 24 25 25 26 27 28 28 29 31 32 33 35 37 39 40 41 42 42 44
20 19 19 19 20 20 21 21 21 21 21 21 21 21 21 21 22 22 22 23 23 24 25 26 27 28 28 30 31 32 33 35 36 38 40 40 41 43
18 18 18 19 20 20 20 19 20 19 20 20 20 20 20 21 21 21 21 22 23 24 23 24 25 26 27 28 29 31 32 32 34 36 38 39 40 42
18 18 18 18 19 19 19 20 20 19 19 19 20 20 20 21 21 21 21 21 21 23 23 23 24 25 26 27 27 29 30 32 33 34 36 38 39 41
18 18 18 18 19 19 19 19 19 19 19 20 20 21 21 21 21 21 21 21 21 21 22 22 23 24 25 26 27 28 29 30 31 32 34 35 37 38
18 18 18 19 19 19 19 19 19 19 20 20 21 21 20 21 21 21 22 22 22 22 22 22 23 23 24 25 25 26 26 27 29 30 31 32 34 36
19 19 19 19 19 19 19 19 19 19 20 21 22 21 21 21 21 21 21 21 21 21 21 22 22 23 23 24 25 25 25 26 27 27 29 30 31 33
20 20 20 20 20 20 19 19 20 20 21 21 22 21 21 21 21 22 21 21 21 21 21 22 22 22 23 24 25 25 25 26 27 27 27 28 30 31
20 21 21 20 20 19 20 20 21 21 21 22 22 22 21 21 21 22 21 21 21 20 21 22 21 21 22 22 23 24 25 25 25 25 26 26 28 28
20 20 20 20 20 19 20 21 21 21 21 22 22 22 21 21 21 21 21 21 20 21 20 21 21 21 21 21 22 23 24 25 25 25 25 26 27 28
20 20 20 20 20 20 20 21 22 21 22 22 22 21 21 21 21 21 21 21 20 20 20 20 20 20 20 21 22 22 23 24 24 25 25 26 27 27
19 20 20 19 19 19 20 21 21 21 21 21 20 21 20 20 20 20 20 20 20 20 21 21 20 20 20 20 20 21 23 23 24 25 25 26 27 27
19 20 20 20 20 20 21 20 20 21 21 21 21 21 21 21 21 21 20 20 20 20 21 21 21 21 21 21 21 20 21 22 23 24 25 25 26 27
20 21 20 20 20 20 21 21 20 21 21 21 21 21 21 20 21 21 21 20 20 21 21 21 21 20 20 21 21 20 20 21 23 24 25 25 26 26
21 21 21 20 21 22 22 22 21 22 21 21 21 20 20 21 21 21 21 22 22 22 22 22 21 21 21 20 20 20 20 20 22 23 24 25 25 25
21 21 21 21 22 23 23 22 22 22 22 21 21 21 21 21 21 21 21 22 22 22 22 22 21 21 20 20 20 20 20 20 21 22 22 23 24 25
21 21 21 22 22 22 22 22 22 22 22 21 21 21 21 20 21 21 21 21 22 22 21 20 20 19 19 19 20 20 20 19 20 20 21 23 24 25
22 22 22 22 22 22 22 22 22 21 22 21 21 21 20 20 20 20 20 21 21 20 20 20 19 18 18 18 18 19 18 18 18 19 19 20 22 24
22 22 22 22 23 23 22 22 22 21 21 21 21 19 19 19 19 19 19 20 20 19 19 19 18 17 16 16 17 18 18 17 17 18 18 19 20 22
Wind_Direction
294 294 294 294 294 294 293 292 290 290 288 287 284 283 280 277 275 272 271 268 266 264 265 263 261 259 257 252 250 249 248 247 246 246 245 245 244 243
297 297 297 296 298 296 294 293 292 290 289 287 286 283 281 278 276 274 273 269 266 266 266 264 261 259 257 253 251 249 247 246 246 246 245 244 244 242
300 298 298 299 300 297 296 295 293 293 292 290 288 285 283 280 278 274 272 270 268 267 267 266 264 260 258 256 254 251 248 246 246 245 244 243 243 243
301 300 300 300 299 299 300 299 297 295 294 292 290 288 286 283 281 277 275 273 272 270 270 269 267 263 259 257 255 253 251 248 247 245 244 243 242 241
303 303 303 302 302 301 301 301 300 298 297 295 293 291 288 285 285 282 278 275 274 274 272 270 268 264 261 258 256 255 252 250 249 246 244 243 243 242
305 305 303 303 304 304 304 304 304 301 299 299 297 293 291 289 286 284 281 277 275 275 273 271 269 267 264 260 257 255 254 251 248 245 244 244 243 242
306 305 304 303 306 306 305 305 305 305 304 303 300 299 297 293 290 288 285 279 277 276 275 272 270 268 265 262 259 256 255 252 248 246 245 245 243 243
307 305 305 303 306 308 308 307 307 307 307 307 305 303 300 296 293 292 288 284 281 278 276 273 272 271 267 263 260 257 255 254 251 248 245 244 243 244
307 308 309 306 306 307 308 308 308 309 309 310 309 306 302 298 295 293 291 287 285 281 279 276 274 272 269 266 260 258 257 255 251 248 245 244 243 242
308 308 308 308 307 306 308 308 306 307 310 312 311 308 305 302 299 296 295 293 289 284 282 279 277 273 270 267 263 262 260 254 249 248 246 245 244 243
310 309 309 307 307 306 305 306 306 307 310 310 310 308 307 305 301 299 297 294 289 286 285 283 280 276 272 268 266 264 261 256 252 250 248 246 245 244
312 312 311 310 308 307 307 305 305 307 308 310 311 310 308 306 304 303 300 295 291 287 286 285 283 278 274 271 267 264 259 255 252 250 249 248 246 245
316 315 315 314 311 308 308 308 307 307 307 307 308 308 309 309 307 306 303 298 294 291 288 286 286 283 278 273 270 266 261 256 253 251 250 250 249 247
320 319 318 318 315 312 312 312 312 311 311 309 307 308 308 309 309 308 307 302 298 294 292 290 287 284 281 276 270 266 263 260 257 254 252 251 251 249
324 323 321 320 321 318 316 315 314 313 312 311 310 310 310 310 310 309 308 305 302 299 296 295 292 288 283 279 272 267 263 261 259 256 253 252 252 249
328 329 327 325 323 322 320 319 317 315 314 313 312 313 312 312 312 311 310 308 305 301 299 297 295 292 286 282 279 271 265 262 260 257 254 253 251 249
333 332 330 327 324 322 324 323 321 319 316 315 314 313 314 314 313 312 311 310 308 305 302 298 294 292 289 286 281 277 270 264 260 257 256 254 252 250
331 331 331 328 327 326 326 325 324 322 319 317 316 316 316 315 315 314 313 311 310 307 305 301 297 293 290 288 283 280 274 267 261 259 258 257 255 253
332 331 330 330 330 330 329 327 325 323 321 319 318 317 317 318 318 317 316 314 312 310 307 303 299 295 293 288 284 282 279 272 265 263 261 259 255 253
335 334 332 332 332 331 330 329 327 325 324 321 319 317 317 317 317 317 318 319 316 313 310 306 301 298 294 291 287 286 282 278 271 266 262 260 257 253
338 337 336 335 335 334 333 332 329 327 326 324 322 321 319 318 319 319 319 320 320 318 314 310 305 301 297 293 290 289 286 282 277 270 265 261 259 255
342 341 341 340 339 339 337 335 334 331 330 330 328 326 326 325 324 323 323 323 324 323 320 317 312 306 302 298 295 291 288 285 280 274 269 264 260 258
347 346 345 344 343 342 341 340 338 336 334 335 335 334 332 331 330 328 328 328 327 327 327 325 319 311 305 303 301 299 293 288 284 278 273 269 264 261
Height
5723 5721 5719 5717 5715 5713 5711 5710 5708 5707 5705 5703 5701 5699 5698 5697 5696 5696 5696 5696 5696 5697 5698 5698 5699 5701 5702 5704 5707 5710 5713 5716 5719 5722 5726 5729 5732 5735
5717 5715 5713 5711 5709 5707 5705 5703 5701 5699 5698 5696 5694 5692 5690 5690 5689 5688 5688 5688 5688 5688 5688 5689 5690 5691 5692 5694 5696 5698 5701 5704 5707 5711 5714 5718 5721 5724
5711 5709 5707 5705 5703 5701 5699 5697 5695 5693 5691 5689 5687 5685 5683 5682 5681 5681 5680 5679 5679 5680 5680 5680 5681 5681 5683 5684 5685 5687 5690 5693 5696 5699 5703 5707 5710 5713
5705 5703 5701 5699 5697 5695 5692 5690 5688 5686 5684 5682 5681 5679 5677 5676 5675 5673 5673 5672 5671 5671 5671 5671 5671 5672 5673 5674 5675 5677 5679 5682 5685 5688 5692 5696 5699 5702
5699 5697 5695 5693 5691 5689 5686 5684 5682 5680 5678 5676 5674 5672 5670 5669 5668 5667 5665 5664 5664 5663 5663 5663 5663 5663 5664 5665 5666 5667 5669 5671 5674 5677 5680 5684 5687 5690
5694 5692 5690 5688 5685 5683 5680 5678 5676 5674 5672 5670 5668 5666 5664 5662 5661 5660 5658 5657 5656 5656 5655 5655 5655 5655 5655 5655 5656 5657 5659 5661 5663 5666 5669 5672 5676 5679
5689 5687 5685 5683 5680 5678 5675 5673 5671 5669 5666 5664 5662 5660 5658 5656 5654 5653 5651 5650 5649 5648 5648 5647 5647 5647 5646 5647 5647 5648 5649 5651 5653 5655 5658 5661 5664 5667
5685 5682 5680 5678 5676 5673 5670 5668 5666 5664 5661 5659 5656 5654 5652 5650 5648 5646 5645 5644 5643 5642 5641 5640 5639 5639 5638 5638 5639 5639 5640 5642 5643 5645 5647 5650 5653 5656
5680 5677 5675 5673 5671 5668 5666 5663 5661 5658 5656 5654 5651 5648 5646 5644 5642 5640 5638 5636 5635 5634 5633 5633 5632 5631 5631 5630 5631 5631 5632 5632 5634 5635 5637 5640 5643 5646
5675 5673 5671 5668 5666 5663 5660 5658 5656 5653 5651 5648 5646 5643 5640 5638 5635 5633 5631 5629 5628 5626 5625 5625 5624 5623 5622 5622 5622 5622 5623 5623 5625 5626 5628 5630 5633 5635
5670 5668 5665 5663 5661 5658 5655 5653 5650 5648 5645 5643 5640 5637 5634 5632 5629 5627 5624 5622 5621 5619 5617 5616 5615 5614 5614 5614 5614 5614 5614 5615 5617 5618 5620 5622 5624 5626
5665 5663 5660 5657 5655 5652 5650 5647 5645 5642 5640 5637 5634 5631 5628 5625 5622 5620 5617 5615 5613 5612 5610 5608 5607 5606 5606 5606 5605 5605 5606 5607 5608 5609 5611 5613 5615 5617
5660 5657 5655 5652 5649 5646 5644 5641 5639 5636 5633 5631 5628 5625 5622 5619 5616 5613 5611 5608 5606 5605 5603 5601 5600 5598 5598 5598 5597 5597 5597 5598 5599 5601 5602 5604 5606 5608
5655 5652 5649 5647 5644 5641 5639 5636 5633 5630 5628 5625 5622 5620 5617 5614 5611 5608 5605 5602 5600 5598 5596 5594 5592 5591 5590 5589 5590 5590 5589 5590 5591 5592 5594 5595 5597 5598
5651 5648 5645 5642 5639 5636 5633 5630 5627 5625 5622 5619 5616 5613 5611 5608 5605 5602 5599 5596 5593 5591 5589 5587 5585 5584 5583 5582 5581 5581 5581 5582 5582 5584 5585 5587 5588 5590
5647 5644 5641 5637 5634 5631 5628 5625 5622 5619 5616 5613 5610 5607 5604 5602 5599 5596 5593 5590 5588 5585 5583 5580 5578 5577 5575 5574 5573 5573 5573 5573 5574 5575 5577 5578 5580 5581
5643 5640 5636 5633 5630 5627 5623 5620 5617 5614 5610 5607 5604 5602 5599 5596 5593 5590 5588 5585 5582 5580 5577 5574 5572 5570 5568 5567 5566 5565 5564 5565 5565 5566 5568 5569 5571 5573
5640 5636 5632 5629 5625 5622 5619 5615 5612 5609 5605 5602 5599 5596 5593 5590 5588 5585 5582 5579 5576 5573 5570 5568 5566 5563 5562 5560 5559 5557 5557 5556 5557 5558 5559 5561 5563 5564
5636 5633 5629 5625 5621 5618 5614 5611 5607 5604 5600 5597 5594 5591 5588 5585 5582 5579 5576 5572 5569 5566 5563 5561 5558 5556 5555 5554 5552 5550 5550 5549 5549 5550 5551 5552 5554 5556
5633 5629 5625 5621 5617 5614 5610 5606 5602 5599 5595 5592 5588 5585 5582 5579 5576 5573 5569 5566 5563 5560 5557 5554 5551 5549 5547 5546 5545 5544 5542 5542 5542 5542 5543 5544 5545 5547
5630 5625 5621 5617 5613 5609 5605 5602 5598 5594 5590 5587 5583 5580 5576 5573 5570 5567 5563 5560 5557 5553 5550 5547 5544 5542 5540 5539 5538 5537 5536 5535 5534 5534 5535 5536 5537 5539
5626 5622 5618 5614 5610 5606 5602 5597 5593 5589 5586 5582 5578 5574 5571 5568 5564 5561 5558 5555 5551 5548 5544 5541 5539 5536 5535 5533 5531 5530 5529 5528 5527 5527 5527 5528 5529 5531
5624 5620 5615 5611 5607 5603 5598 5594 5590 5585 5582 5578 5574 5570 5567 5563 5560 5557 5554 5550 5547 5544 5540 5537 5534 5532 5529 5528 5526 5524 5523 5522 5521 5520 5521 5521 5521 5522